Voltar ao catálogo

THORAD AGENA D DEB

AtivoPO
NORAD 4764·DEBRIS·🇺🇸 United States

Lançado Apr 8, 1970 de Vandenberg Space Force Base

Loading…

Próximas Passagens (próximas 24 horas)

TLE

AtualizadoSource: Space-Track

Época: Sep 13, 2026, 11:05 UTC

1 04764U 70025DJ  26256.46234508  .00008683  00000-0  24411-2 0  9997
2 04764  99.5075 335.7018 0026461 152.3380 207.9223 14.45957675839598

Acompanhe THORAD AGENA D DEB em tempo real com AllMySat

Download on the App Store